Weather History for Marysville, OH

Change the Weather History Date:

Sunday, January 20, 2013

  Actual Average (KDLZ) Record (KDLZ)
Temperature  
Mean Temperature 32 °F -  
Max Temperature 43 °F 33 °F 59 °F (1951)
Min Temperature 22 °F 14 °F -18 °F (1985)
Degree Days  
Heating Degree Days 32    
Moisture  
Dew Point 16 °F    
Average Humidity 57    
Maximum Humidity 67    
Minimum Humidity 46    
Precipitation  
Precipitation 0.00 in - - ()
Sea Level Pressure  
Sea Level Pressure 30.07 in    
Wind  
Wind Speed 17 mph (WNW)    
Max Wind Speed 30 mph    
Max Gust Speed 48 mph    
Visibility 10 miles    
Events      
Averages and records for this station are not official NWS values.
T = Trace of Precipitation, MM = Missing Value Source: NWS Daily Summary

Daily Weather History Graph

Daily Weather History Graph

Search for Another Location

Airport:

Trip Planner

Search our weather history database for the weather conditions in past years. The results will help you decide how hot, cold, wet, or windy it might be!

Date:

Astronomy

Jan. 20, 2013 Rise Set
Actual Time 7:51 AM EST 5:38 PM EST
Civil Twilight 7:21 AM EST 6:07 PM EST
Nautical Twilight 6:48 AM EST 6:40 PM EST
Astronomical Twilight 6:16 AM EST 7:13 PM EST
Moon 12:38 PM EST (1/20) 2:22 AM EST (1/20)
Length of Visible Light 10h 45m
Length of Day
9h 46m
Waxing Gibbous, 66% of the Moon is Illuminated
Jan 20
Waxing Gibbous
Jan 26
Full
Feb 3
Last Quarter
Feb 10
New
Feb 17
First Quarter

Hourly Weather History & Observations

Time (EST) Temp. Windchill Dew Point Humidity Pressure Visibility Wind Dir Wind Speed Gust Speed Precip Events Conditions
12:14 AM 43.9 °F 35.2 °F 28.2 °F 54% 29.81 in 10.0 mi WSW 21.9 mph 28.8 mph N/A   Clear
12:34 AM 43.3 °F 35.0 °F 28.8 °F 56% 29.81 in 10.0 mi WSW 19.6 mph 28.8 mph N/A   Clear
12:54 AM 43.3 °F 34.2 °F 29.3 °F 58% 29.81 in 10.0 mi WSW 23.0 mph 28.8 mph N/A   Clear
1:14 AM 43.2 °F 34.2 °F 30.2 °F 60% 29.81 in 10.0 mi WSW 21.9 mph 26.5 mph N/A   Clear
1:34 AM 43.5 °F 35.8 °F 30.9 °F 61% 29.80 in 10.0 mi West 17.3 mph 34.5 mph N/A   Clear
1:54 AM 43.0 °F 35.1 °F 31.3 °F 63% 29.80 in 10.0 mi West 17.3 mph 28.8 mph N/A   Clear
2:14 AM 43.0 °F 33.8 °F 31.8 °F 65% 29.81 in 10.0 mi West 23.0 mph 32.2 mph N/A   Clear
2:34 AM 43.2 °F 34.2 °F 32.0 °F 65% 29.83 in 10.0 mi West 21.9 mph 33.4 mph N/A   Scattered Clouds
2:54 AM 42.8 °F 32.3 °F 31.6 °F 65% 29.85 in 10.0 mi WNW 29.9 mph 48.3 mph N/A   Mostly Cloudy
3:14 AM 41.7 °F 33.1 °F 31.1 °F 66% 29.86 in 10.0 mi WNW 18.4 mph 32.2 mph N/A   Overcast
3:34 AM 40.3 °F 29.9 °F 29.3 °F 65% 29.87 in 10.0 mi West 24.2 mph 35.7 mph N/A   Mostly Cloudy
3:54 AM 39.4 °F 29.8 °F 29.3 °F 67% 29.87 in 10.0 mi West 19.6 mph 33.4 mph N/A   Scattered Clouds
4:14 AM 38.8 °F 30.0 °F 28.6 °F 67% 29.88 in 10.0 mi West 16.1 mph 25.3 mph N/A   Clear
4:34 AM 37.9 °F 27.1 °F 26.1 °F 62% 29.88 in 10.0 mi West 23.0 mph 34.5 mph N/A   Scattered Clouds
4:54 AM 37.4 °F 25.4 °F 23.9 °F 58% 29.90 in 10.0 mi West 27.6 mph 36.8 mph N/A   Clear
5:14 AM 35.6 °F 27.5 °F 23.9 °F 62% 29.91 in 10.0 mi WNW 11.5 mph - N/A   Scattered Clouds
5:34 AM 34.2 °F 21.5 °F 15.6 °F 47% 29.93 in 10.0 mi WNW 25.3 mph 34.5 mph N/A   Scattered Clouds
5:54 AM 32.7 °F 19.1 °F 15.3 °F 49% 29.94 in 10.0 mi WNW 27.6 mph 35.7 mph N/A   Clear
6:14 AM 31.3 °F 19.2 °F 12.7 °F 46% 29.96 in 10.0 mi WNW 19.6 mph 29.9 mph N/A   Clear
6:34 AM 29.8 °F 16.3 °F 13.3 °F 50% 29.98 in 10.0 mi NW 23.0 mph 32.2 mph N/A   Clear
6:54 AM 29.1 °F 16.7 °F 13.1 °F 51% 30.00 in 10.0 mi NW 18.4 mph 26.5 mph N/A   Clear
7:14 AM 28.2 °F 15.9 °F 13.1 °F 53% 30.02 in 10.0 mi NW 17.3 mph 26.5 mph N/A   Clear
7:34 AM 27.5 °F 16.3 °F 13.1 °F 55% 30.03 in 10.0 mi NW 13.8 mph 25.3 mph N/A   Clear
7:54 AM 27.0 °F 13.9 °F 12.0 °F 53% 30.05 in 10.0 mi NW 18.4 mph 27.6 mph N/A   Clear
8:13 AM 26.2 °F 13.8 °F 11.3 °F 53% 30.06 in 10.0 mi WNW 16.1 mph 24.2 mph N/A   Clear
8:34 AM 26.2 °F 11.9 °F 10.0 °F 50% 30.08 in 10.0 mi NW 21.9 mph 32.2 mph N/A   Clear
8:54 AM 26.2 °F 13.8 °F 10.2 °F 51% 30.09 in 10.0 mi NW 16.1 mph 27.6 mph N/A   Clear
9:13 AM 26.2 °F 11.5 °F 10.8 °F 52% 30.10 in 10.0 mi NW 23.0 mph 29.9 mph N/A   Clear
9:34 AM 26.4 °F 12.5 °F 11.1 °F 53% 30.12 in 10.0 mi NW 20.7 mph 27.6 mph N/A   Clear
9:54 AM 26.6 °F 13.4 °F 11.5 °F 53% 30.13 in 10.0 mi NW 18.4 mph 27.6 mph N/A   Clear
10:13 AM 27.1 °F 14.9 °F 11.8 °F 53% 30.15 in 10.0 mi WNW 16.1 mph 21.9 mph N/A   Scattered Clouds
10:34 AM 27.5 °F 15.4 °F 11.8 °F 52% 30.16 in 10.0 mi WNW 16.1 mph - N/A   Scattered Clouds
10:54 AM 27.1 °F 14.1 °F 12.4 °F 54% 30.17 in 10.0 mi WNW 18.4 mph 23.0 mph N/A   Scattered Clouds
11:13 AM 27.5 °F 17.4 °F 11.5 °F 51% 30.17 in 10.0 mi NW 11.5 mph 24.2 mph N/A   Mostly Cloudy
11:34 AM 27.0 °F 16.1 °F 11.8 °F 53% 30.18 in 10.0 mi WNW 12.7 mph 23.0 mph N/A   Mostly Cloudy
11:54 AM 27.7 °F 16.1 °F 11.7 °F 51% 30.18 in 10.0 mi WNW 15.0 mph 19.6 mph N/A   Scattered Clouds
12:14 PM 27.7 °F 16.6 °F 11.3 °F 50% 30.17 in 10.0 mi NW 13.8 mph 20.7 mph N/A   Mostly Cloudy
12:34 PM 26.4 °F 15.5 °F 11.3 °F 53% 30.17 in 10.0 mi NW 12.7 mph 18.4 mph N/A   Scattered Clouds
12:54 PM 27.3 °F 17.1 °F 12.0 °F 53% 30.17 in 10.0 mi NW 11.5 mph - N/A   Mostly Cloudy
1:14 PM 28.6 °F 17.7 °F 12.9 °F 52% 30.16 in 10.0 mi WNW 13.8 mph 18.4 mph N/A   Mostly Cloudy
1:34 PM 27.1 °F 19.7 °F 11.5 °F 52% 30.15 in 10.0 mi West 6.9 mph - N/A   Scattered Clouds
1:53 PM 28.4 °F 19.1 °F 12.9 °F 52% 30.15 in 10.0 mi West 10.4 mph - N/A   Scattered Clouds
2:14 PM 27.5 °F 16.3 °F 11.7 °F 51% 30.15 in 10.0 mi WNW 13.8 mph 17.3 mph N/A   Scattered Clouds
2:34 PM 27.5 °F 17.4 °F 12.4 °F 53% 30.15 in 10.0 mi WNW 11.5 mph - N/A   Clear
2:53 PM 27.5 °F 17.4 °F 11.8 °F 52% 30.15 in 10.0 mi NW 11.5 mph - N/A   Clear
3:14 PM 27.5 °F 19.3 °F 12.6 °F 54% 30.13 in 10.0 mi WNW 8.1 mph - N/A   Clear
3:34 PM 27.7 °F 17.1 °F 11.8 °F 51% 30.16 in 10.0 mi WNW 12.7 mph - N/A   Clear
3:54 PM 27.9 °F 15.9 °F 11.8 °F 51% 30.16 in 10.0 mi NW 16.1 mph 20.7 mph N/A   Clear
4:14 PM 26.2 °F 15.8 °F 11.5 °F 54% 30.16 in 10.0 mi NW 11.5 mph - N/A   Clear
4:34 PM 25.7 °F 14.6 °F 11.1 °F 54% 30.16 in 10.0 mi WNW 12.7 mph - N/A   Clear
4:54 PM 25.3 °F 14.7 °F 12.0 °F 57% 30.17 in 10.0 mi WNW 11.5 mph - N/A   Mostly Cloudy
5:14 PM 25.2 °F 15.7 °F 10.8 °F 54% 30.17 in 10.0 mi NW 9.2 mph - N/A   Overcast
5:34 PM 24.6 °F 15.8 °F 11.1 °F 57% 30.17 in 10.0 mi NW 8.1 mph - N/A   Mostly Cloudy
5:54 PM 23.9 °F 15.8 °F 11.5 °F 59% 30.17 in 10.0 mi WNW 6.9 mph - N/A   Clear
6:14 PM 23.2 °F 13.3 °F 11.8 °F 62% 30.18 in 10.0 mi WNW 9.2 mph - N/A   Clear
6:34 PM 22.8 °F 14.5 °F 12.0 °F 63% 30.18 in 10.0 mi WNW 6.9 mph - N/A   Clear
6:54 PM 22.1 °F 14.7 °F 11.7 °F 64% 30.18 in 10.0 mi NW 5.8 mph - N/A   Clear
7:14 PM 22.1 °F 15.9 °F 11.5 °F 64% 30.18 in 10.0 mi WNW 4.6 mph - N/A   Clear
7:54 PM 23.0 °F 17.0 °F 12.2 °F 63% 30.18 in 10.0 mi West 4.6 mph - N/A   Scattered Clouds
8:14 PM 23.0 °F 14.7 °F 12.0 °F 63% 30.18 in 10.0 mi WNW 6.9 mph - N/A   Overcast
8:34 PM 23.2 °F 15.0 °F 12.0 °F 62% 30.17 in 10.0 mi WNW 6.9 mph - N/A   Overcast
8:54 PM 23.4 °F 13.5 °F 12.4 °F 63% 30.17 in 10.0 mi WNW 9.2 mph - N/A   Overcast
9:14 PM 23.4 °F 12.8 °F 12.4 °F 63% 30.16 in 10.0 mi NW 10.4 mph - N/A   Overcast
9:34 PM 23.4 °F 13.5 °F 12.2 °F 62% 30.16 in 10.0 mi WNW 9.2 mph - N/A   Overcast
9:54 PM 23.4 °F 13.5 °F 12.2 °F 62% 30.15 in 10.0 mi WNW 9.2 mph - N/A   Overcast
10:14 PM 23.2 °F 14.1 °F 12.4 °F 63% 30.15 in 10.0 mi WNW 8.1 mph - N/A   Overcast
10:34 PM 23.4 °F 13.5 °F 12.4 °F 63% 30.16 in 10.0 mi WNW 9.2 mph - N/A   Overcast
10:54 PM 23.4 °F 14.3 °F 12.6 °F 63% 30.15 in 10.0 mi NW 8.1 mph - N/A   Overcast
11:14 PM 23.2 °F 14.1 °F 11.8 °F 62% 30.14 in 10.0 mi NW 8.1 mph - N/A   Overcast
11:34 PM 23.2 °F 13.3 °F 12.0 °F 62% 30.15 in 10.0 mi WNW 9.2 mph - N/A   Overcast
11:54 PM 23.2 °F 13.3 °F 12.4 °F 63% 30.14 in 10.0 mi WNW 9.2 mph - N/A   Overcast